Time,TemperatureF,DewpointF,PressureIn,WindDirection,WindDirectionDegrees,WindSpeedMPH,WindSpeedGustMPH,Humidity,HourlyPrecipIn,Conditions,Clouds,dailyrainin,SolarRadiationWatts/m^2,SoftwareType,DateUTC
2013-03-09 00:02:00,48.7,40.0,29.89,SE,145,2.0,8.0,71,0.00,,,0.00,0,Custom,2013-03-09 06:02:00,
2013-03-09 00:07:00,48.6,40.0,29.89,South,182,5.0,8.0,71,0.00,,,0.00,0,Custom,2013-03-09 06:07:00,
2013-03-09 00:12:00,48.6,40.0,29.89,SSW,197,11.0,13.0,71,0.00,,,0.00,0,Custom,2013-03-09 06:12:00,
2013-03-09 00:17:00,48.6,40.0,29.89,South,187,12.0,12.0,71,0.00,,,0.00,0,Custom,2013-03-09 06:17:00,
2013-03-09 00:22:00,48.5,40.0,29.89,SE,135,6.0,12.0,71,0.00,,,0.00,0,Custom,2013-03-09 06:22:00,
2013-03-09 00:27:00,48.5,40.0,29.89,SSE,155,3.0,8.0,71,0.00,,,0.00,0,Custom,2013-03-09 06:27:00,
2013-03-09 00:32:00,48.5,40.0,29.89,South,175,3.0,6.0,72,0.00,,,0.00,0,Custom,2013-03-09 06:32:00,
2013-03-09 00:37:00,48.4,40.0,29.89,South,175,6.0,8.0,71,0.00,,,0.00,0,Custom,2013-03-09 06:37:00,
2013-03-09 00:42:00,48.3,40.0,29.89,SE,139,0.0,8.0,72,0.00,,,0.00,0,Custom,2013-03-09 06:42:00,
2013-03-09 00:47:00,48.3,40.0,29.89,ESE,115,3.0,8.0,72,0.00,,,0.00,0,Custom,2013-03-09 06:47:00,
2013-03-09 00:52:00,48.4,40.0,29.88,South,171,0.0,8.0,72,0.00,,,0.00,0,Custom,2013-03-09 06:52:00,
2013-03-09 00:57:00,48.2,40.0,29.88,SE,129,0.0,10.0,72,0.00,,,0.00,0,Custom,2013-03-09 06:57:00,
2013-03-09 01:02:00,48.2,40.0,29.88,SSE,158,2.0,12.0,72,0.00,,,0.00,0,Custom,2013-03-09 07:02:00,
2013-03-09 01:07:00,48.1,40.0,29.88,South,178,6.0,6.0,72,0.00,,,0.00,0,Custom,2013-03-09 07:07:00,
2013-03-09 01:12:00,48.2,40.0,29.89,SSE,168,4.0,9.0,73,0.00,,,0.00,0,Custom,2013-03-09 07:12:00,
2013-03-09 01:17:00,48.2,40.0,29.89,SSW,195,8.0,8.0,73,0.00,,,0.00,0,Custom,2013-03-09 07:17:00,
2013-03-09 01:22:00,48.2,40.0,29.89,South,184,3.0,8.0,73,0.00,,,0.00,0,Custom,2013-03-09 07:22:00,
2013-03-09 01:27:00,48.1,40.0,29.89,South,172,3.0,10.0,73,0.00,,,0.00,0,Custom,2013-03-09 07:27:00,
2013-03-09 01:32:00,48.0,40.0,29.89,South,176,0.0,6.0,74,0.00,,,0.00,0,Custom,2013-03-09 07:32:00,
2013-03-09 01:37:00,48.0,40.0,29.89,SSE,163,2.0,9.0,74,0.00,,,0.00,0,Custom,2013-03-09 07:37:00,
2013-03-09 01:42:00,48.0,40.0,29.88,South,190,8.0,8.0,74,0.00,,,0.00,0,Custom,2013-03-09 07:42:00,
2013-03-09 01:47:00,47.9,40.0,29.88,SSE,168,0.0,8.0,75,0.00,,,0.00,0,Custom,2013-03-09 07:47:00,
2013-03-09 01:52:00,48.0,40.0,29.88,SSW,211,0.0,8.0,75,0.00,,,0.00,0,Custom,2013-03-09 07:52:00,
2013-03-09 01:57:00,47.9,40.0,29.87,South,171,2.0,6.0,75,0.00,,,0.00,0,Custom,2013-03-09 07:57:00,
2013-03-09 02:03:00,48.0,40.0,29.87,South,175,0.0,10.0,75,0.00,,,0.00,0,Custom,2013-03-09 08:03:00,
2013-03-09 02:08:00,48.0,41.0,29.86,South,180,6.0,10.0,76,0.00,,,0.00,0,Custom,2013-03-09 08:08:00,
2013-03-09 02:13:00,48.0,41.0,29.86,South,187,6.0,6.0,76,0.00,,,0.00,0,Custom,2013-03-09 08:13:00,
2013-03-09 02:18:00,47.9,41.0,29.86,South,179,0.0,6.0,76,0.00,,,0.00,0,Custom,2013-03-09 08:18:00,
2013-03-09 02:23:00,48.0,41.0,29.85,SSE,162,3.0,9.0,76,0.00,,,0.00,0,Custom,2013-03-09 08:23:00,
2013-03-09 02:28:00,48.0,41.0,29.85,South,184,0.0,7.0,76,0.00,,,0.00,0,Custom,2013-03-09 08:28:00,
2013-03-09 02:33:00,47.9,41.0,29.85,SSE,166,6.0,8.0,77,0.00,,,0.00,0,Custom,2013-03-09 08:33:00,
2013-03-09 02:38:00,47.9,41.0,29.85,SSW,197,0.0,7.0,77,0.00,,,0.00,0,Custom,2013-03-09 08:38:00,
2013-03-09 02:43:00,47.9,41.0,29.85,SSW,193,6.0,8.0,77,0.00,,,0.00,0,Custom,2013-03-09 08:43:00,
2013-03-09 02:48:00,48.0,41.0,29.85,South,191,1.0,9.0,77,0.00,,,0.00,0,Custom,2013-03-09 08:48:00,
2013-03-09 02:53:00,47.9,41.0,29.85,South,191,2.0,7.0,78,0.00,,,0.00,0,Custom,2013-03-09 08:53:00,
2013-03-09 02:58:00,47.9,41.0,29.84,South,183,0.0,4.0,77,0.00,,,0.00,0,Custom,2013-03-09 08:58:00,
2013-03-09 03:03:00,47.8,41.0,29.83,South,183,5.0,6.0,78,0.00,,,0.00,0,Custom,2013-03-09 09:03:00,
2013-03-09 03:08:00,47.6,41.0,29.83,South,177,4.0,5.0,78,0.00,,,0.00,0,Custom,2013-03-09 09:08:00,
2013-03-09 03:13:00,47.6,41.0,29.82,SSE,162,4.0,11.0,78,0.00,,,0.00,0,Custom,2013-03-09 09:13:00,
2013-03-09 03:18:00,47.5,41.0,29.82,SSW,212,6.0,6.0,78,0.00,,,0.00,0,Custom,2013-03-09 09:18:00,
2013-03-09 03:23:00,47.5,41.0,29.82,SSE,165,6.0,7.0,79,0.00,,,0.00,0,Custom,2013-03-09 09:23:00,
2013-03-09 03:28:00,47.5,41.0,29.81,SSE,165,5.0,6.0,78,0.00,,,0.00,0,Custom,2013-03-09 09:28:00,
2013-03-09 03:33:00,47.5,41.0,29.82,SSE,152,3.0,7.0,79,0.00,,,0.00,0,Custom,2013-03-09 09:33:00,
2013-03-09 03:38:00,47.3,41.0,29.82,South,171,0.0,7.0,79,0.00,,,0.00,0,Custom,2013-03-09 09:38:00,
2013-03-09 03:43:00,47.3,41.0,29.81,ESE,118,2.0,8.0,79,0.00,,,0.00,0,Custom,2013-03-09 09:43:00,
2013-03-09 03:48:00,47.0,41.0,29.81,SSE,167,3.0,9.0,79,0.00,,,0.00,0,Custom,2013-03-09 09:48:00,
2013-03-09 03:53:00,47.0,41.0,29.81,ESE,108,0.0,8.0,79,0.00,,,0.00,0,Custom,2013-03-09 09:53:00,
2013-03-09 03:58:00,46.9,41.0,29.81,SSE,156,0.0,7.0,80,0.00,,,0.00,0,Custom,2013-03-09 09:58:00,
2013-03-09 04:03:00,46.8,41.0,29.81,South,169,0.0,6.0,80,0.00,,,0.00,0,Custom,2013-03-09 10:03:00,
2013-03-09 04:08:00,46.9,41.0,29.80,South,176,5.0,9.0,80,0.00,,,0.00,0,Custom,2013-03-09 10:08:00,
2013-03-09 04:13:00,46.8,41.0,29.80,SE,133,7.0,7.0,80,0.00,,,0.00,0,Custom,2013-03-09 10:13:00,
2013-03-09 04:18:00,47.0,41.0,29.80,South,184,4.0,11.0,80,0.00,,,0.00,0,Custom,2013-03-09 10:18:00,
2013-03-09 04:23:00,46.7,41.0,29.80,SSE,156,1.0,7.0,80,0.00,,,0.00,0,Custom,2013-03-09 10:23:00,
2013-03-09 04:28:00,46.5,41.0,29.79,SE,131,3.0,7.0,81,0.00,,,0.00,0,Custom,2013-03-09 10:28:00,
2013-03-09 04:33:00,46.3,41.0,29.79,SSW,201,2.0,6.0,81,0.00,,,0.00,0,Custom,2013-03-09 10:33:00,
2013-03-09 04:38:00,46.3,40.0,29.79,SSE,157,0.0,5.0,80,0.00,,,0.00,0,Custom,2013-03-09 10:38:00,
2013-03-09 04:43:00,46.3,41.0,29.79,SSE,153,3.0,9.0,81,0.00,,,0.00,0,Custom,2013-03-09 10:43:00,
2013-03-09 04:48:00,46.5,41.0,29.78,East,88,4.0,9.0,81,0.00,,,0.00,0,Custom,2013-03-09 10:48:00,
2013-03-09 04:53:00,46.3,41.0,29.78,East,101,0.0,9.0,81,0.00,,,0.00,0,Custom,2013-03-09 10:53:00,
2013-03-09 04:58:00,46.1,41.0,29.78,ESE,115,0.0,8.0,81,0.00,,,0.00,0,Custom,2013-03-09 10:58:00,
2013-03-09 05:03:00,46.3,41.0,29.78,SSE,152,3.0,13.0,81,0.00,,,0.00,0,Custom,2013-03-09 11:03:00,
2013-03-09 05:08:00,46.2,41.0,29.78,South,189,0.0,6.0,81,0.00,,,0.00,0,Custom,2013-03-09 11:08:00,
2013-03-09 05:13:00,46.2,41.0,29.78,South,170,0.0,8.0,81,0.00,,,0.00,0,Custom,2013-03-09 11:13:00,
2013-03-09 05:18:00,46.1,41.0,29.78,SSW,195,3.0,7.0,81,0.00,,,0.00,0,Custom,2013-03-09 11:18:00,
2013-03-09 05:23:00,46.0,41.0,29.78,SSW,200,4.0,6.0,81,0.00,,,0.00,0,Custom,2013-03-09 11:23:00,
2013-03-09 05:28:00,46.2,41.0,29.78,SSE,168,6.0,11.0,81,0.00,,,0.00,0,Custom,2013-03-09 11:28:00,
2013-03-09 05:33:00,46.1,41.0,29.78,ESE,111,3.0,8.0,82,0.00,,,0.00,0,Custom,2013-03-09 11:33:00,
2013-03-09 05:38:00,46.4,41.0,29.78,South,171,0.0,12.0,81,0.00,,,0.00,0,Custom,2013-03-09 11:38:00,
2013-03-09 05:43:00,46.5,41.0,29.78,SSE,167,4.0,9.0,81,0.00,,,0.00,0,Custom,2013-03-09 11:43:00,
2013-03-09 05:48:00,46.5,41.0,29.78,SSE,161,0.0,12.0,81,0.00,,,0.00,0,Custom,2013-03-09 11:48:00,
2013-03-09 05:53:00,46.5,41.0,29.77,SSW,193,10.0,10.0,80,0.00,,,0.00,0,Custom,2013-03-09 11:53:00,
2013-03-09 05:58:00,46.3,41.0,29.77,SSE,168,1.0,9.0,80,0.00,,,0.00,0,Custom,2013-03-09 11:58:00,
2013-03-09 06:03:00,46.3,41.0,29.77,South,175,0.0,8.0,81,0.00,,,0.00,0,Custom,2013-03-09 12:03:00,
2013-03-09 06:08:00,46.6,41.0,29.77,SSE,163,8.0,11.0,81,0.00,,,0.00,0,Custom,2013-03-09 12:08:00,
2013-03-09 06:13:00,46.6,41.0,29.77,South,184,3.0,9.0,80,0.00,,,0.00,0,Custom,2013-03-09 12:13:00,
2013-03-09 06:18:00,46.6,41.0,29.76,SSE,157,0.0,5.0,80,0.00,,,0.00,0,Custom,2013-03-09 12:18:00,
2013-03-09 06:23:00,46.5,40.0,29.76,SSE,150,0.0,6.0,80,0.00,,,0.00,0,Custom,2013-03-09 12:23:00,
2013-03-09 06:28:00,46.5,40.0,29.76,South,179,3.0,7.0,80,0.00,,,0.00,0,Custom,2013-03-09 12:28:00,
2013-03-09 06:33:00,46.3,40.0,29.76,South,183,6.0,6.0,80,0.00,,,0.00,0,Custom,2013-03-09 12:33:00,
2013-03-09 06:38:00,46.3,41.0,29.76,South,177,3.0,7.0,80,0.00,,,0.00,0,Custom,2013-03-09 12:38:00,
2013-03-09 06:43:00,46.3,41.0,29.76,South,181,4.0,4.0,80,0.00,,,0.00,0,Custom,2013-03-09 12:43:00,
2013-03-09 06:48:00,46.3,41.0,29.76,South,181,7.0,7.0,80,0.00,,,0.00,0,Custom,2013-03-09 12:48:00,
2013-03-09 06:53:00,46.3,41.0,29.76,South,178,3.0,7.0,80,0.00,,,0.00,0,Custom,2013-03-09 12:53:00,
2013-03-09 06:58:00,46.4,41.0,29.76,SSW,193,0.0,4.0,80,0.00,,,0.00,0,Custom,2013-03-09 12:58:00,
2013-03-09 07:03:00,46.5,41.0,29.76,SSE,167,5.0,8.0,80,0.00,,,0.00,0,Custom,2013-03-09 13:03:00,
2013-03-09 07:08:00,46.8,41.0,29.76,South,184,3.0,8.0,79,0.00,,,0.00,12.87,Custom,2013-03-09 13:08:00,
2013-03-09 07:13:00,46.9,41.0,29.76,SSE,161,3.0,8.0,79,0.00,,,0.00,19.5,Custom,2013-03-09 13:13:00,
2013-03-09 07:18:00,47.0,41.0,29.76,South,182,5.0,5.0,79,0.00,,,0.00,19.89,Custom,2013-03-09 13:18:00,
2013-03-09 07:23:00,47.5,41.0,29.75,South,169,3.0,8.0,79,0.00,,,0.00,28.08,Custom,2013-03-09 13:23:00,
2013-03-09 07:28:00,47.5,41.0,29.75,South,190,7.0,8.0,78,0.00,,,0.00,31.59,Custom,2013-03-09 13:28:00,
2013-03-09 07:33:00,47.7,41.0,29.75,South,174,0.0,6.0,77,0.00,,,0.00,29.64,Custom,2013-03-09 13:33:00,
2013-03-09 07:38:00,47.7,41.0,29.75,South,180,3.0,7.0,77,0.00,,,0.00,40.95,Custom,2013-03-09 13:38:00,
2013-03-09 07:43:00,47.7,41.0,29.75,South,183,4.0,10.0,77,0.00,,,0.00,54.6,Custom,2013-03-09 13:43:00,
2013-03-09 07:48:00,47.8,41.0,29.75,South,171,0.0,10.0,77,0.00,,,0.00,60.84,Custom,2013-03-09 13:48:00,
2013-03-09 07:53:00,47.8,41.0,29.74,South,179,0.0,7.0,77,0.00,,,0.00,40.95,Custom,2013-03-09 13:53:00,
2013-03-09 07:58:00,48.2,41.0,29.74,SSE,163,1.0,7.0,77,0.00,,,0.00,55.38,Custom,2013-03-09 13:58:00,
2013-03-09 08:03:00,48.5,41.0,29.73,SSE,168,3.0,11.0,76,0.00,,,0.00,76.05,Custom,2013-03-09 14:03:00,
2013-03-09 08:08:00,48.9,41.0,29.73,SSE,154,3.0,8.0,75,0.00,,,0.00,93.6,Custom,2013-03-09 14:08:00,
2013-03-09 08:13:00,49.5,42.0,29.73,SSW,210,5.0,8.0,75,0.00,,,0.00,105.69,Custom,2013-03-09 14:13:00,
2013-03-09 08:18:00,49.8,41.0,29.72,South,173,6.0,11.0,73,0.00,,,0.00,88.92,Custom,2013-03-09 14:18:00,
2013-03-09 08:23:00,49.9,42.0,29.72,South,184,4.0,9.0,73,0.00,,,0.00,85.41,Custom,2013-03-09 14:23:00,
2013-03-09 08:28:00,50.1,42.0,29.72,South,169,6.0,9.0,72,0.00,,,0.00,79.17,Custom,2013-03-09 14:28:00,
2013-03-09 08:33:00,50.3,42.0,29.72,South,180,5.0,10.0,72,0.00,,,0.00,79.56,Custom,2013-03-09 14:33:00,
2013-03-09 08:38:00,50.5,42.0,29.72,South,175,7.0,13.0,71,0.00,,,0.00,60.06,Custom,2013-03-09 14:38:00,
2013-03-09 08:43:00,50.6,42.0,29.71,SSW,193,2.0,11.0,72,0.00,,,0.00,60.84,Custom,2013-03-09 14:43:00,
2013-03-09 08:48:00,50.7,42.0,29.71,South,188,5.0,12.0,71,0.00,,,0.00,60.06,Custom,2013-03-09 14:48:00,
2013-03-09 08:53:00,50.8,42.0,29.71,South,184,6.0,14.0,71,0.00,,,0.00,70.59,Custom,2013-03-09 14:53:00,
2013-03-09 08:58:00,51.0,42.0,29.71,South,185,14.0,14.0,71,0.00,,,0.00,63.96,Custom,2013-03-09 14:58:00,
2013-03-09 09:03:00,51.2,42.0,29.71,South,188,8.0,15.0,71,0.00,,,0.00,51.48,Custom,2013-03-09 15:03:00,
2013-03-09 09:08:00,51.3,42.0,29.71,SSE,159,4.0,11.0,70,0.00,,,0.00,55.77,Custom,2013-03-09 15:08:00,
2013-03-09 09:13:00,51.5,42.0,29.71,South,170,7.0,10.0,70,0.00,,,0.00,68.64,Custom,2013-03-09 15:13:00,
2013-03-09 09:18:00,51.7,42.0,29.70,South,173,3.0,15.0,69,0.00,,,0.00,68.64,Custom,2013-03-09 15:18:00,
2013-03-09 09:23:00,51.8,42.0,29.70,South,187,6.0,13.0,69,0.00,,,0.00,88.53,Custom,2013-03-09 15:23:00,
2013-03-09 09:28:00,52.2,42.0,29.70,South,169,6.0,13.0,69,0.00,,,0.00,73.32,Custom,2013-03-09 15:28:00,
2013-03-09 09:33:00,52.6,42.0,29.69,SSW,196,6.0,10.0,68,0.00,,,0.00,144.3,Custom,2013-03-09 15:33:00,
2013-03-09 09:38:00,53.4,43.0,29.69,SSW,211,9.0,13.0,67,0.00,,,0.00,223.47,Custom,2013-03-09 15:38:00,
2013-03-09 09:43:00,53.6,43.0,29.69,South,174,0.0,14.0,67,0.00,,,0.00,134.16,Custom,2013-03-09 15:43:00,
2013-03-09 09:48:00,53.7,43.0,29.69,SSE,165,5.0,11.0,67,0.00,,,0.00,152.49,Custom,2013-03-09 15:48:00,
2013-03-09 09:53:00,54.0,43.0,29.70,SE,143,5.0,11.0,66,0.00,,,0.00,152.88,Custom,2013-03-09 15:53:00,
2013-03-09 09:58:00,54.7,44.0,29.70,SW,216,8.0,13.0,66,0.00,,,0.00,267.54,Custom,2013-03-09 15:58:00,
2013-03-09 10:03:00,55.6,44.0,29.70,SSE,167,11.0,12.0,65,0.00,,,0.00,251.94,Custom,2013-03-09 16:03:00,
2013-03-09 10:08:00,55.9,44.0,29.70,South,176,11.0,13.0,65,0.00,,,0.00,244.14,Custom,2013-03-09 16:08:00,
2013-03-09 10:13:00,56.1,44.0,29.70,South,178,7.0,12.0,64,0.00,,,0.00,239.85,Custom,2013-03-09 16:13:00,
2013-03-09 10:18:00,56.2,45.0,29.69,SSW,207,10.0,16.0,66,0.00,,,0.00,197.73,Custom,2013-03-09 16:18:00,
2013-03-09 10:23:00,56.2,44.0,29.69,South,191,7.0,14.0,64,0.00,,,0.00,131.43,Custom,2013-03-09 16:23:00,
2013-03-09 10:28:00,56.0,45.0,29.69,SSE,163,3.0,13.0,65,0.00,,,0.00,95.55,Custom,2013-03-09 16:28:00,
2013-03-09 10:33:00,56.1,44.0,29.69,SSW,209,4.0,13.0,65,0.00,,,0.00,92.04,Custom,2013-03-09 16:33:00,
2013-03-09 10:38:00,56.2,44.0,29.68,South,185,6.0,10.0,64,0.00,,,0.00,120.12,Custom,2013-03-09 16:38:00,
2013-03-09 10:43:00,56.6,45.0,29.68,South,188,5.0,10.0,65,0.00,,,0.00,168.48,Custom,2013-03-09 16:43:00,
2013-03-09 10:48:00,57.2,45.0,29.68,SSE,151,13.0,13.0,64,0.00,,,0.00,183.3,Custom,2013-03-09 16:48:00,
2013-03-09 10:53:00,57.2,45.0,29.68,SSW,201,7.0,12.0,64,0.00,,,0.00,158.34,Custom,2013-03-09 16:53:00,
2013-03-09 10:58:00,57.6,45.0,29.67,South,186,3.0,9.0,63,0.00,,,0.00,198.9,Custom,2013-03-09 16:58:00,
2013-03-09 11:03:00,58.1,45.0,29.67,SSE,161,5.0,9.0,62,0.00,,,0.00,270.27,Custom,2013-03-09 17:03:00,
2013-03-09 11:08:00,58.5,46.0,29.67,South,183,4.0,9.0,62,0.00,,,0.00,303.42,Custom,2013-03-09 17:08:00,
2013-03-09 11:13:00,59.0,46.0,29.67,SSE,168,2.0,10.0,62,0.00,,,0.00,230.1,Custom,2013-03-09 17:13:00,
2013-03-09 11:18:00,59.0,45.0,29.67,South,177,10.0,10.0,61,0.00,,,0.00,196.17,Custom,2013-03-09 17:18:00,
2013-03-09 11:23:00,58.9,46.0,29.67,South,180,3.0,12.0,62,0.00,,,0.00,275.34,Custom,2013-03-09 17:23:00,
2013-03-09 11:28:00,58.8,46.0,29.67,SSW,206,11.0,13.0,63,0.00,,,0.00,161.46,Custom,2013-03-09 17:28:00,
2013-03-09 11:33:00,58.7,46.0,29.67,South,186,7.0,11.0,63,0.00,,,0.00,138.45,Custom,2013-03-09 17:33:00,
2013-03-09 11:38:00,58.8,46.0,29.67,South,185,8.0,10.0,64,0.00,,,0.00,144.69,Custom,2013-03-09 17:38:00,
2013-03-09 11:43:00,58.9,46.0,29.66,SSW,205,7.0,10.0,63,0.00,,,0.00,124.8,Custom,2013-03-09 17:43:00,
2013-03-09 11:48:00,58.3,47.0,29.67,South,186,4.0,9.0,66,0.00,,,0.00,72.93,Custom,2013-03-09 17:48:00,
2013-03-09 11:53:00,58.0,47.0,29.66,SSE,164,0.0,7.0,66,0.00,,,0.00,69.81,Custom,2013-03-09 17:53:00,
2013-03-09 11:58:00,58.3,48.0,29.66,South,172,4.0,12.0,68,0.00,,,0.00,112.32,Custom,2013-03-09 17:58:00,
2013-03-09 12:03:00,58.5,48.0,29.65,South,183,4.0,8.0,68,0.00,,,0.00,109.2,Custom,2013-03-09 18:03:00,
2013-03-09 12:08:00,58.6,48.0,29.65,SSW,194,5.0,10.0,68,0.00,,,0.00,209.43,Custom,2013-03-09 18:08:00,
2013-03-09 12:13:00,59.5,49.0,29.65,South,185,6.0,12.0,67,0.00,,,0.00,278.85,Custom,2013-03-09 18:13:00,
2013-03-09 12:18:00,59.9,48.0,29.64,South,186,7.0,14.0,65,0.00,,,0.00,174.72,Custom,2013-03-09 18:18:00,
2013-03-09 12:23:00,59.6,48.0,29.65,SSW,195,6.0,13.0,66,0.00,,,0.00,74.88,Custom,2013-03-09 18:23:00,
2013-03-09 12:28:00,59.0,48.0,29.65,South,186,6.0,12.0,67,0.00,,,0.00,62.01,Custom,2013-03-09 18:28:00,
2013-03-09 12:33:00,59.0,48.0,29.63,South,180,5.0,9.0,67,0.00,,,0.00,160.29,Custom,2013-03-09 18:33:00,
2013-03-09 12:38:00,59.3,48.0,29.63,South,187,4.0,9.0,65,0.00,,,0.00,143.13,Custom,2013-03-09 18:38:00,
2013-03-09 12:43:00,58.8,48.0,29.63,South,191,8.0,12.0,67,0.00,,,0.00,91.26,Custom,2013-03-09 18:43:00,
2013-03-09 12:48:00,58.7,48.0,29.64,SSE,162,7.0,13.0,68,0.00,,,0.00,66.69,Custom,2013-03-09 18:48:00,
2013-03-09 12:53:00,58.2,48.0,29.64,South,182,0.0,9.0,69,0.00,,,0.00,71.37,Custom,2013-03-09 18:53:00,
2013-03-09 12:58:00,58.0,49.0,29.63,SSW,197,7.0,9.0,71,0.00,,,0.00,49.14,Custom,2013-03-09 18:58:00,
2013-03-09 13:03:00,58.0,49.0,29.63,SSW,193,0.0,9.0,71,0.00,,,0.00,42.51,Custom,2013-03-09 19:03:00,
2013-03-09 13:08:00,58.1,49.0,29.62,South,172,4.0,9.0,70,0.00,,,0.00,57.72,Custom,2013-03-09 19:08:00,
2013-03-09 13:13:00,58.2,49.0,29.62,South,174,3.0,7.0,70,0.00,,,0.00,36.66,Custom,2013-03-09 19:13:00,
2013-03-09 13:18:00,58.1,49.0,29.62,South,183,4.0,7.0,70,0.00,,,0.00,42.51,Custom,2013-03-09 19:18:00,
2013-03-09 13:23:00,58.3,49.0,29.62,South,183,0.0,5.0,70,0.00,,,0.00,49.53,Custom,2013-03-09 19:23:00,
2013-03-09 13:28:00,57.8,49.0,29.62,South,183,2.0,2.0,72,0.00,,,0.00,33.93,Custom,2013-03-09 19:28:00,
2013-03-09 13:33:00,57.5,49.0,29.62,South,183,0.0,3.0,73,0.00,,,0.00,30.03,Custom,2013-03-09 19:33:00,
2013-03-09 13:38:00,57.5,50.0,29.62,South,183,0.0,2.0,75,0.00,,,0.00,25.74,Custom,2013-03-09 19:38:00,
2013-03-09 13:43:00,57.2,49.0,29.62,South,183,0.0,0.0,75,0.00,,,0.00,14.43,Custom,2013-03-09 19:43:00,
2013-03-09 13:48:00,57.0,49.0,29.62,South,183,0.0,0.0,76,0.00,,,0.00,10.92,Custom,2013-03-09 19:48:00,
2013-03-09 13:53:00,56.8,50.0,29.61,South,183,0.0,1.0,77,0.00,,,0.00,13.65,Custom,2013-03-09 19:53:00,
2013-03-09 13:58:00,56.7,50.0,29.61,South,183,0.0,0.0,78,0.00,,,0.00,15.6,Custom,2013-03-09 19:58:00,
2013-03-09 14:03:00,56.5,50.0,29.60,South,183,0.0,0.0,80,0.00,,,0.00,19.11,Custom,2013-03-09 20:03:00,
2013-03-09 14:08:00,56.4,51.0,29.59,South,183,0.0,0.0,81,0.00,,,0.00,17.55,Custom,2013-03-09 20:08:00,
2013-03-09 14:13:00,56.4,51.0,29.59,South,183,0.0,0.0,81,0.00,,,0.00,16.38,Custom,2013-03-09 20:13:00,
2013-03-09 14:18:00,56.5,51.0,29.59,South,183,0.0,0.0,81,0.00,,,0.00,12.09,Custom,2013-03-09 20:18:00,
2013-03-09 14:23:00,56.6,51.0,29.60,South,183,0.0,0.0,80,0.00,,,0.00,12.87,Custom,2013-03-09 20:23:00,
2013-03-09 14:28:00,56.4,51.0,29.60,South,183,0.0,0.0,81,0.00,,,0.00,11.31,Custom,2013-03-09 20:28:00,
2013-03-09 14:33:00,56.3,51.0,29.60,South,183,0.0,0.0,81,0.00,,,0.00,10.53,Custom,2013-03-09 20:33:00,
2013-03-09 14:38:00,56.2,51.0,29.60,South,183,0.0,0.0,81,0.00,,,0.00,10.14,Custom,2013-03-09 20:38:00,
2013-03-09 14:43:00,56.2,51.0,29.60,South,183,0.0,0.0,82,0.00,,,0.00,8.58,Custom,2013-03-09 20:43:00,
2013-03-09 14:48:00,56.1,50.0,29.60,South,183,0.0,0.0,81,0.00,,,0.00,12.48,Custom,2013-03-09 20:48:00,
2013-03-09 14:53:00,55.7,51.0,29.60,SSW,193,0.0,2.0,82,0.00,,,0.00,17.94,Custom,2013-03-09 20:53:00,
2013-03-09 14:58:00,55.4,51.0,29.60,SSW,193,0.0,0.0,83,0.00,,,0.00,26.13,Custom,2013-03-09 20:58:00,
2013-03-09 15:03:00,55.3,51.0,29.59,SSW,193,0.0,1.0,85,0.00,,,0.01,37.05,Custom,2013-03-09 21:03:00,
2013-03-09 15:08:00,55.2,51.0,29.60,SSW,193,0.0,0.0,85,0.01,,,0.01,18.72,Custom,2013-03-09 21:08:00,
2013-03-09 15:13:00,55.1,51.0,29.60,SSW,193,0.0,0.0,86,0.01,,,0.01,19.11,Custom,2013-03-09 21:13:00,
2013-03-09 15:18:00,54.9,51.0,29.60,SSW,193,0.0,0.0,86,0.01,,,0.01,23.4,Custom,2013-03-09 21:18:00,
2013-03-09 15:23:00,54.5,51.0,29.60,SSW,192,0.0,0.0,87,0.02,,,0.02,23.4,Custom,2013-03-09 21:23:00,
2013-03-09 15:28:00,54.5,51.0,29.60,SSW,193,0.0,1.0,87,0.02,,,0.02,19.11,Custom,2013-03-09 21:28:00,
2013-03-09 15:33:00,54.5,51.0,29.60,SSW,193,0.0,0.0,88,0.02,,,0.02,19.11,Custom,2013-03-09 21:33:00,
2013-03-09 15:38:00,54.5,51.0,29.60,South,190,0.0,2.0,89,0.02,,,0.02,33.93,Custom,2013-03-09 21:38:00,
2013-03-09 15:44:00,54.5,51.0,29.59,South,190,0.0,2.0,88,0.03,,,0.03,37.05,Custom,2013-03-09 21:44:00,
2013-03-09 15:49:00,54.5,51.0,29.59,South,190,0.0,2.0,89,0.03,,,0.03,30.81,Custom,2013-03-09 21:49:00,
2013-03-09 15:54:00,54.5,51.0,29.60,SE,141,0.0,2.0,89,0.03,,,0.03,20.28,Custom,2013-03-09 21:54:00,
2013-03-09 15:59:00,54.4,51.0,29.59,SE,141,0.0,2.0,89,0.03,,,0.03,21.45,Custom,2013-03-09 21:59:00,
2013-03-09 16:04:00,54.2,51.0,29.59,SE,140,0.0,2.0,89,0.02,,,0.03,17.55,Custom,2013-03-09 22:04:00,
2013-03-09 16:09:00,54.1,51.0,29.59,SE,140,0.0,1.0,90,0.02,,,0.03,19.11,Custom,2013-03-09 22:09:00,
2013-03-09 16:14:00,54.0,51.0,29.58,SE,140,0.0,2.0,90,0.02,,,0.03,19.5,Custom,2013-03-09 22:14:00,
2013-03-09 16:19:00,54.0,51.0,29.58,SE,140,0.0,0.0,90,0.02,,,0.03,13.65,Custom,2013-03-09 22:19:00,
2013-03-09 16:24:00,54.0,51.0,29.58,SE,140,0.0,1.0,90,0.01,,,0.03,17.55,Custom,2013-03-09 22:24:00,
2013-03-09 16:29:00,54.0,51.0,29.57,SE,140,0.0,0.0,90,0.02,,,0.04,20.28,Custom,2013-03-09 22:29:00,
2013-03-09 16:34:00,54.0,51.0,29.57,SE,140,0.0,0.0,90,0.02,,,0.04,26.52,Custom,2013-03-09 22:34:00,
2013-03-09 16:39:00,54.0,51.0,29.57,SE,140,0.0,0.0,90,0.02,,,0.04,17.94,Custom,2013-03-09 22:39:00,
2013-03-09 16:44:00,54.1,51.0,29.57,SE,140,0.0,0.0,90,0.01,,,0.04,17.16,Custom,2013-03-09 22:44:00,
2013-03-09 16:49:00,54.2,51.0,29.57,SE,140,0.0,0.0,90,0.02,,,0.05,8.19,Custom,2013-03-09 22:49:00,
2013-03-09 16:54:00,54.1,51.0,29.57,SE,140,0.0,0.0,90,0.04,,,0.07,7.8,Custom,2013-03-09 22:54:00,
2013-03-09 16:59:00,54.1,51.0,29.57,SE,140,0.0,0.0,90,0.05,,,0.08,12.09,Custom,2013-03-09 22:59:00,
2013-03-09 17:04:00,54.2,51.0,29.57,SE,140,0.0,0.0,90,0.06,,,0.09,0,Custom,2013-03-09 23:04:00,
2013-03-09 17:09:00,54.2,52.0,29.57,SE,140,0.0,0.0,91,0.06,,,0.09,0,Custom,2013-03-09 23:09:00,
2013-03-09 17:14:00,54.3,52.0,29.57,SE,140,0.0,0.0,91,0.06,,,0.09,0,Custom,2013-03-09 23:14:00,
2013-03-09 17:19:00,54.2,52.0,29.57,SE,140,0.0,0.0,91,0.06,,,0.09,0,Custom,2013-03-09 23:19:00,
2013-03-09 17:24:00,54.2,52.0,29.57,SE,140,0.0,0.0,91,0.06,,,0.09,0,Custom,2013-03-09 23:24:00,
2013-03-09 17:29:00,54.4,52.0,29.59,SE,141,0.0,0.0,91,0.09,,,0.18,0,Custom,2013-03-09 23:29:00,
2013-03-09 17:34:00,54.3,52.0,29.57,SE,141,0.0,0.0,92,0.17,,,0.23,0,Custom,2013-03-09 23:34:00,
2013-03-09 17:39:00,54.5,52.0,29.58,SE,141,0.0,0.0,92,0.20,,,0.24,0,Custom,2013-03-09 23:39:00,
2013-03-09 17:44:00,54.5,52.0,29.58,SE,141,0.0,1.0,92,0.25,,,0.29,0,Custom,2013-03-09 23:44:00,
2013-03-09 17:49:00,54.5,52.0,29.57,SE,141,0.0,1.0,93,0.28,,,0.34,0,Custom,2013-03-09 23:49:00,
2013-03-09 17:54:00,54.6,53.0,29.57,SE,141,0.0,0.0,92,0.27,,,0.35,0,Custom,2013-03-09 23:54:00,
2013-03-09 17:59:00,54.3,52.0,29.57,SE,141,0.0,1.0,92,0.26,,,0.35,0,Custom,2013-03-09 23:59:00,
2013-03-09 18:04:00,54.1,52.0,29.58,SE,141,0.0,0.0,92,0.26,,,0.36,0,Custom,2013-03-10 00:04:00,
2013-03-09 18:09:00,54.0,52.0,29.57,SE,141,1.0,1.0,92,0.31,,,0.41,0,Custom,2013-03-10 00:09:00,
2013-03-09 18:14:00,54.1,52.0,29.57,SE,141,0.0,1.0,93,0.33,,,0.43,0,Custom,2013-03-10 00:14:00,
2013-03-09 18:19:00,54.1,52.0,29.57,SE,141,0.0,0.0,93,0.34,,,0.43,0,Custom,2013-03-10 00:19:00,
2013-03-09 18:24:00,54.0,52.0,29.58,SE,141,0.0,0.0,93,0.35,,,0.44,0,Custom,2013-03-10 00:24:00,
2013-03-09 18:29:00,54.0,52.0,29.57,SE,141,0.0,1.0,93,0.33,,,0.46,0,Custom,2013-03-10 00:29:00,
2013-03-09 18:34:00,54.1,52.0,29.57,SE,141,0.0,0.0,93,0.25,,,0.46,0,Custom,2013-03-10 00:34:00,
2013-03-09 18:39:00,54.0,52.0,29.57,SE,141,0.0,0.0,93,0.23,,,0.47,0,Custom,2013-03-10 00:39:00,
2013-03-09 18:44:00,54.1,52.0,29.57,SE,141,0.0,0.0,93,0.19,,,0.48,0,Custom,2013-03-10 00:44:00,
2013-03-09 18:49:00,54.1,52.0,29.56,SE,141,0.0,1.0,93,0.15,,,0.48,0,Custom,2013-03-10 00:49:00,
2013-03-09 18:54:00,54.0,52.0,29.56,SE,141,0.0,1.0,93,0.15,,,0.49,0,Custom,2013-03-10 00:54:00,
2013-03-09 18:59:00,53.9,52.0,29.56,SE,141,0.0,1.0,93,0.15,,,0.49,0,Custom,2013-03-10 00:59:00,
2013-03-09 19:04:00,53.7,52.0,29.56,SE,141,0.0,0.0,93,0.14,,,0.49,0,Custom,2013-03-10 01:04:00,
2013-03-09 19:09:00,53.7,52.0,29.57,SE,141,0.0,2.0,93,0.09,,,0.51,0,Custom,2013-03-10 01:09:00,
2013-03-09 19:14:00,53.7,52.0,29.58,SE,141,0.0,2.0,93,0.15,,,0.60,0,Custom,2013-03-10 01:14:00,
2013-03-09 19:19:00,53.8,52.0,29.56,SE,138,0.0,2.0,94,0.25,,,0.69,0,Custom,2013-03-10 01:19:00,
2013-03-09 19:24:00,54.0,52.0,29.57,SE,138,0.0,1.0,94,0.28,,,0.73,0,Custom,2013-03-10 01:24:00,
2013-03-09 19:29:00,54.0,52.0,29.58,SE,138,0.0,0.0,94,0.31,,,0.78,0,Custom,2013-03-10 01:29:00,
2013-03-09 19:34:00,54.2,52.0,29.59,SE,138,0.0,0.0,94,0.37,,,0.84,0,Custom,2013-03-10 01:34:00,
2013-03-09 19:39:00,54.1,52.0,29.59,SE,138,0.0,1.0,94,0.42,,,0.92,0,Custom,2013-03-10 01:39:00,
2013-03-09 19:44:00,54.1,52.0,29.56,SE,137,1.0,2.0,94,0.47,,,0.96,0,Custom,2013-03-10 01:44:00,
2013-03-09 19:49:00,54.1,52.0,29.57,SE,137,0.0,2.0,94,0.49,,,0.98,0,Custom,2013-03-10 01:49:00,
2013-03-09 19:54:00,54.2,52.0,29.57,ESE,106,0.0,5.0,94,0.49,,,0.99,0,Custom,2013-03-10 01:54:00,
2013-03-09 19:59:00,54.1,52.0,29.57,ESE,106,0.0,3.0,94,0.49,,,0.99,0,Custom,2013-03-10 01:59:00,
2013-03-09 20:04:00,54.2,53.0,29.57,ESE,106,0.0,2.0,94,0.49,,,0.99,0,Custom,2013-03-10 02:04:00,
2013-03-09 20:09:00,54.2,52.0,29.57,ESE,106,0.0,0.0,94,0.49,,,0.99,0,Custom,2013-03-10 02:09:00,
2013-03-09 20:14:00,54.2,52.0,29.57,ESE,106,0.0,0.0,94,0.42,,,0.99,0,Custom,2013-03-10 02:14:00,
2013-03-09 20:19:00,54.4,53.0,29.57,ESE,106,0.0,1.0,94,0.31,,,0.99,0,Custom,2013-03-10 02:19:00,
2013-03-09 20:24:00,54.7,53.0,29.57,ESE,106,0.0,0.0,94,0.26,,,0.99,0,Custom,2013-03-10 02:24:00,
2013-03-09 20:29:00,55.1,53.0,29.56,ESE,107,0.0,1.0,94,0.22,,,0.99,0,Custom,2013-03-10 02:29:00,
2013-03-09 20:34:00,55.2,54.0,29.56,ESE,112,2.0,2.0,94,0.16,,,0.99,0,Custom,2013-03-10 02:34:00,
2013-03-09 20:39:00,55.3,54.0,29.57,ESE,112,0.0,2.0,94,0.11,,,1.00,0,Custom,2013-03-10 02:39:00,
2013-03-09 20:44:00,55.2,53.0,29.56,ESE,112,0.0,0.0,94,0.04,,,1.00,0,Custom,2013-03-10 02:44:00,
2013-03-09 20:49:00,55.1,53.0,29.56,ESE,112,1.0,0.0,94,0.02,,,1.00,0,Custom,2013-03-10 02:49:00,
2013-03-09 20:54:00,55.7,54.0,29.56,SSE,153,2.0,3.0,94,0.01,,,1.00,0,Custom,2013-03-10 02:54:00,
2013-03-09 20:59:00,55.9,54.0,29.56,South,171,2.0,3.0,94,0.01,,,1.00,0,Custom,2013-03-10 02:59:00,
2013-03-09 21:04:00,56.1,55.0,29.56,South,171,0.0,3.0,94,0.01,,,1.00,0,Custom,2013-03-10 03:04:00,
2013-03-09 21:09:00,56.1,54.0,29.57,South,174,0.0,4.0,94,0.01,,,1.00,0,Custom,2013-03-10 03:09:00,
2013-03-09 21:14:00,56.0,54.0,29.56,South,174,0.0,2.0,94,0.01,,,1.00,0,Custom,2013-03-10 03:14:00,
2013-03-09 21:19:00,56.2,55.0,29.56,South,190,4.0,4.0,94,0.01,,,1.00,0,Custom,2013-03-10 03:19:00,
2013-03-09 21:24:00,56.1,54.0,29.56,South,191,4.0,4.0,94,0.01,,,1.00,0,Custom,2013-03-10 03:24:00,
2013-03-09 21:29:00,56.2,54.0,29.56,South,190,0.0,3.0,94,0.01,,,1.00,0,Custom,2013-03-10 03:29:00,
2013-03-09 21:34:00,56.2,54.0,29.56,South,177,0.0,3.0,93,0.01,,,1.00,0,Custom,2013-03-10 03:34:00,
2013-03-09 21:39:00,56.3,55.0,29.56,South,179,0.0,4.0,94,0.00,,,1.00,0,Custom,2013-03-10 03:39:00,
2013-03-09 21:44:00,56.4,55.0,29.54,South,183,4.0,4.0,93,0.00,,,1.00,0,Custom,2013-03-10 03:44:00,
2013-03-09 21:49:00,56.5,55.0,29.54,SSW,197,0.0,5.0,94,0.00,,,1.00,0,Custom,2013-03-10 03:49:00,
2013-03-09 21:54:00,56.6,55.0,29.53,SE,136,0.0,4.0,94,0.01,,,1.01,0,Custom,2013-03-10 03:54:00,
2013-03-09 21:59:00,56.4,55.0,29.52,ESE,112,0.0,3.0,93,0.01,,,1.01,0,Custom,2013-03-10 03:59:00,
2013-03-09 22:04:00,56.4,55.0,29.52,SSE,166,4.0,10.0,93,0.01,,,1.01,0,Custom,2013-03-10 04:04:00,
2013-03-09 22:09:00,56.6,55.0,29.51,South,178,3.0,5.0,93,0.01,,,1.01,0,Custom,2013-03-10 04:09:00,
2013-03-09 22:14:00,56.7,55.0,29.52,South,181,3.0,5.0,93,0.01,,,1.01,0,Custom,2013-03-10 04:14:00,
2013-03-09 22:19:00,56.7,55.0,29.52,South,182,2.0,6.0,94,0.01,,,1.01,0,Custom,2013-03-10 04:19:00,
2013-03-09 22:24:00,56.7,55.0,29.52,South,170,0.0,10.0,93,0.01,,,1.01,0,Custom,2013-03-10 04:24:00,
2013-03-09 22:29:00,56.8,55.0,29.52,SSW,196,3.0,5.0,93,0.01,,,1.01,0,Custom,2013-03-10 04:29:00,
2013-03-09 22:34:00,56.7,55.0,29.52,SE,128,4.0,4.0,93,0.01,,,1.01,0,Custom,2013-03-10 04:34:00,
2013-03-09 22:39:00,56.9,55.0,29.52,SSW,193,2.0,8.0,93,0.01,,,1.01,0,Custom,2013-03-10 04:39:00,
2013-03-09 22:44:00,57.0,55.0,29.52,South,185,7.0,10.0,93,0.01,,,1.01,0,Custom,2013-03-10 04:44:00,
2013-03-09 22:49:00,56.8,55.0,29.52,South,184,7.0,9.0,93,0.01,,,1.01,0,Custom,2013-03-10 04:49:00,
2013-03-09 22:54:00,56.7,55.0,29.52,SSE,157,0.0,10.0,93,0.00,,,1.01,0,Custom,2013-03-10 04:54:00,
2013-03-09 22:59:00,56.7,55.0,29.52,SSW,199,3.0,7.0,92,0.00,,,1.01,0,Custom,2013-03-10 04:59:00,
2013-03-09 23:00:00,56.5,54.0,29.52,South,183,4.0,7.0,93,0.00,,,1.01,0,Custom,2013-03-10 05:00:00,
2013-03-09 23:01:00,56.5,54.0,29.52,South,183,2.0,7.0,93,0.00,,,1.01,0,Custom,2013-03-10 05:01:00,
2013-03-09 23:03:00,56.5,55.0,29.53,South,184,0.0,7.0,93,0.00,,,1.01,0,Custom,2013-03-10 05:03:00,
2013-03-09 23:08:00,56.4,54.0,29.53,South,182,4.0,7.0,93,0.00,,,1.01,0,Custom,2013-03-10 05:08:00,
2013-03-09 23:13:00,56.1,54.0,29.54,SSW,202,8.0,9.0,93,0.00,,,1.01,0,Custom,2013-03-10 05:13:00,
2013-03-09 23:18:00,55.9,54.0,29.53,South,175,0.0,8.0,92,0.00,,,1.01,0,Custom,2013-03-10 05:18:00,
2013-03-09 23:23:00,55.8,53.0,29.53,South,189,0.0,7.0,91,0.00,,,1.01,0,Custom,2013-03-10 05:23:00,
2013-03-09 23:28:00,55.8,53.0,29.52,South,182,0.0,7.0,91,0.00,,,1.01,0,Custom,2013-03-10 05:28:00,
2013-03-09 23:33:00,55.7,53.0,29.52,South,185,0.0,7.0,90,0.00,,,1.01,0,Custom,2013-03-10 05:33:00,
2013-03-09 23:38:00,55.5,53.0,29.52,South,170,0.0,6.0,90,0.00,,,1.01,0,Custom,2013-03-10 05:38:00,
2013-03-09 23:43:00,55.2,52.0,29.51,South,180,0.0,6.0,90,0.00,,,1.01,0,Custom,2013-03-10 05:43:00,
2013-03-09 23:48:00,54.9,52.0,29.51,South,183,0.0,2.0,90,0.00,,,1.01,0,Custom,2013-03-10 05:48:00,
2013-03-09 23:53:00,54.8,52.0,29.51,South,183,0.0,2.0,90,0.00,,,1.01,0,Custom,2013-03-10 05:53:00,
2013-03-09 23:58:00,54.8,52.0,29.52,South,183,0.0,2.0,91,0.00,,,1.01,0,Custom,2013-03-10 05:58:00,